H1 CPF 2 NER 2024 12 20 9 355 01 glonass127 H2 1106403 9127 37869 2024 12 20 0 0 0 2024 12 23 23 45 0 900 1 1 0 0 0 1 H9 10 0 60664 0.00000 0 12436351.965 9854660.514 20046315.901 10 0 60664 900.00000 0 9889583.594 9758052.012 21462338.606 10 0 60664 1800.00000 0 7194685.679 9859471.787 22464400.477 10 0 60664 2700.00000 0 4419024.086 10172432.242 23033154.821 10 0 60664 3600.00000 0 1632143.537 10698243.635 23157548.709 10 0 60664 4500.00000 0 -1096866.252 11425876.771 22835037.296 10 0 60664 5400.00000 0 -3701982.726 12332353.288 22071642.773 10 0 60664 6300.00000 0 -6122735.899 13383648.949 20881856.149 10 0 60664 7200.00000 0 -8306466.647 14536074.699 19288382.338 10 0 60664 8100.00000 0 -10210266.090 15738080.704 17321731.316 10 0 60664 9000.00000 0 -11802516.526 16932411.082 15019660.666 10 0 60664 9900.00000 0 -13063969.765 18058521.997 12426477.404 10 0 60664 10800.00000 0 -13988317.125 19055164.106 9592209.717 10 0 60664 11700.00000 0 -14582225.738 19863022.479 6571661.983 10 0 60664 12600.00000 0 -14864837.709 20427303.404 3423369.267 10 0 60664 13500.00000 0 -14866751.134 20700158.519 208470.081 10 0 60664 14400.00000 0 -14628524.043 20642842.299 -3010481.402 10 0 60664 15300.00000 0 -14198763.033 20227509.135 -6170740.416 10 0 60664 16200.00000 0 -13631876.774 19438570.808 -9210609.163 10 0 60664 17100.00000 0 -12985589.634 18273553.313 -12070661.154 10 0 60664 18000.00000 0 -12318321.859 16743413.235 -14694926.288 10 0 60664 18900.00000 0 -11686549.134 14872297.079 -17032011.072 10 0 60664 19800.00000 0 -11142255.867 12696751.097 -19036129.641 10 0 60664 20700.00000 0 -10730592.806 10264413.203 -20668022.960 10 0 60664 21600.00000 0 -10487840.942 7632241.219 -21895746.187 10 0 60664 22500.00000 0 -10439770.274 4864351.979 -22695307.178 10 0 60664 23400.00000 0 -10600464.760 2029562.848 -23051142.555 10 0 60664 24300.00000 0 -10971664.222 -801259.983 -22956421.545 10 0 60664 25200.00000 0 -11542651.265 -3557933.870 -22413171.783 10 0 60664 26100.00000 0 -12290687.422 -6173656.988 -21432225.259 10 0 60664 27000.00000 0 -13181978.733 -8587556.736 -20032986.635 10 0 60664 27900.00000 0 -14173128.077 -10746982.414 -18243029.991 10 0 60664 28800.00000 0 -15213010.670 -12609446.777 -16097533.690 10 0 60664 29700.00000 0 -16244991.191 -14144136.742 -13638566.460 10 0 60664 30600.00000 0 -17209386.747 -15332932.333 -10914240.615 10 0 60664 31500.00000 0 -18046069.948 -16170894.332 -7977751.027 10 0 60664 32400.00000 0 -18697101.029 -16666203.842 -4886320.410 10 0 60664 33300.00000 0 -19109277.559 -16839560.339 -1700072.947 10 0 60664 34200.00000 0 -19236494.414 -16723067.330 1519140.549 10 0 60664 35100.00000 0 -19041815.674 -16358656.119 4708942.549 10 0 60664 36000.00000 0 -18499172.744 -15796116.850 7807630.398 10 0 60664 36900.00000 0 -17594619.228 -15090821.616 10755356.735 10 0 60664 37800.00000 0 -16327091.907 -14301236.423 13495267.064 10 0 60664 38700.00000 0 -14708647.728 -13486326.533 15974574.062 10 0 60664 39600.00000 0 -12764168.271 -12702963.204 18145549.987 10 0 60664 40500.00000 0 -10530544.783 -12003438.941 19966420.454 10 0 60664 41400.00000 0 -8055377.574 -11433193.224 21402144.840 10 0 60664 42300.00000 0 -5395242.847 -11028841.568 22425070.692 10 0 60664 43200.00000 0 -2613596.938 -10816588.193 23015451.622 10 0 60664 44100.00000 0 221597.824 -10811086.986 23161820.341 10 0 60664 45000.00000 0 3040430.425 -11014797.402 22861210.578 10 0 60664 45900.00000 0 5773679.245 -11417862.158 22119223.802 10 0 60664 46800.00000 0 8355425.079 -11998512.741 20949938.816 10 0 60664 47700.00000 0 10725533.769 -12723987.553 19375664.547 10 0 60664 48600.00000 0 12831907.893 -13551926.724 17426538.718 10 0 60664 49500.00000 0 14632415.421 -14432188.067 15139977.559 10 0 60664 50400.00000 0 16096415.621 -15309010.926 12559984.322 10 0 60664 51300.00000 0 17205818.136 -16123439.657 9736327.112 10 0 60664 52200.00000 0 17955629.736 -16815906.790 6723599.262 10 0 60664 53100.00000 0 18353963.954 -17328868.114 3580178.335 10 0 60664 54000.00000 0 18421511.049 -17609378.524 367102.407 10 0 60664 54900.00000 0 18190488.446 -17611498.701 -2853115.285 10 0 60664 55800.00000 0 17703114.093 -17298428.714 -6017710.153 10 0 60664 56700.00000 0 17009666.015 -16644275.312 -9064903.812 10 0 60664 57600.00000 0 16166209.645 -15635374.560 -11935129.700 10 0 60664 58500.00000 0 15232089.620 -14271110.158 -14572220.708 10 0 60664 59400.00000 0 14267293.474 -12564189.253 -16924533.209 10 0 60664 60300.00000 0 13329800.818 -10540360.982 -18945983.034 10 0 60664 61200.00000 0 12473032.667 -8237587.277 -20596970.691 10 0 60664 62100.00000 0 11743511.392 -5704699.366 -21845175.644 10 0 60664 63000.00000 0 11178832.675 -2999595.912 -22666202.508 10 0 60664 63900.00000 0 10806037.129 -187058.791 -23044065.351 10 0 60664 64800.00000 0 10640451.681 2663720.971 -22971500.185 10 0 60664 65700.00000 0 10685050.020 5481802.089 -22450099.575 10 0 60664 66600.00000 0 10930358.668 8197223.973 -21490267.399 10 0 60664 67500.00000 0 11354911.342 10743694.271 -20110995.750 10 0 60664 68400.00000 0 11926230.416 13061119.880 -18339469.871 10 0 60664 69300.00000 0 12602291.546 15097875.473 -16210510.644 10 0 60664 70200.00000 0 13333406.945 16812715.504 -13765867.552 10 0 60664 71100.00000 0 14064445.062 18176251.369 -11053377.956 10 0 60664 72000.00000 0 14737290.593 19171934.375 -8126011.155 10 0 60664 72900.00000 0 15293439.095 19796506.616 -5040817.709 10 0 60664 73800.00000 0 15676615.514 20059904.496 -1857806.065 10 0 60664 74700.00000 0 15835305.764 19984622.849 1361230.454 10 0 60664 75600.00000 0 15725094.962 19604570.008 4553912.840 10 0 60664 76500.00000 0 15310714.881 18963465.114 7658478.334 10 0 60664 77400.00000 0 14567716.131 18112847.624 10614962.368 10 0 60664 78300.00000 0 13483696.559 17109783.954 13366338.652 10 0 60664 79200.00000 0 12059036.035 16014368.034 15859596.949 10 0 60664 80100.00000 0 10307108.506 14887120.210 18046739.863 10 0 60664 81000.00000 0 8253963.373 13786392.071 19885681.776 10 0 60664 81900.00000 0 5937489.658 12765883.794 21341035.124 10 0 60664 82800.00000 0 3406097.014 11872375.369 22384771.245 10 0 60664 83700.00000 0 716966.794 11143764.050 22996745.196 10 0 60664 84600.00000 0 -2066056.696 10607487.756 23165076.089 10 0 60664 85500.00000 0 -4874850.435 10279398.606 22886376.587 10 0 60665 0.00000 0 -7639576.834 10163132.744 22165827.432 10 0 60665 900.00000 0 -10291326.634 10250002.800 21017094.517 10 0 60665 1800.00000 0 -12764730.626 10519418.562 19462089.783 10 0 60665 2700.00000 0 -15000439.511 10939819.851 17530577.196 10 0 60665 3600.00000 0 -16947367.181 11470085.114 15259629.715 10 0 60665 4500.00000 0 -18564606.521 12061359.222 12692944.582 10 0 60665 5400.00000 0 -19822937.597 12659226.334 9880027.325 10 0 60665 6300.00000 0 -20705864.266 13206138.576 6875257.590 10 0 60665 7200.00000 0 -21210134.046 13643999.663 3736852.705 10 0 60665 8100.00000 0 -21345717.219 13916794.907 525747.555 10 0 60665 9000.00000 0 -21135243.641 13973155.880 -2695588.313 10 0 60665 9900.00000 0 -20612918.747 13768749.602 -5864373.221 10 0 60665 10800.00000 0 -19822962.743 13268388.512 -8918750.890 10 0 60665 11700.00000 0 -18817637.862 12447768.567 -11799017.312 10 0 60665 12600.00000 0 -17654946.887 11294758.211 -14448810.893 10 0 60665 13500.00000 0 -16396100.975 9810179.916 -16816240.223 10 0 60665 14400.00000 0 -15102865.306 8008047.789 -18854924.955 10 0 60665 15300.00000 0 -13834896.869 5915248.375 -20524926.973 10 0 60665 16200.00000 0 -12647189.243 3570676.022 -21793551.561 10 0 60665 17100.00000 0 -11587734.640 1023858.043 -22636001.238 10 0 60665 18000.00000 0 -10695503.958 -1666872.800 -23035868.296 10 0 60665 18900.00000 0 -9998831.521 -4436581.233 -22985455.912 10 0 60665 19800.00000 0 -9514273.226 -7216214.432 -22485921.572 10 0 60665 20700.00000 0 -9245986.041 -9935263.457 -21547240.632 10 0 60665 21600.00000 0 -9185653.805 -12524488.397 -20187991.827 10 0 60665 22500.00000 0 -9312960.483 -14918592.088 -18434970.410 10 0 60665 23400.00000 0 -9596588.311 -17058729.958 -16322638.306 10 0 60665 24300.00000 0 -9995695.694 -18894751.181 -13892424.021 10 0 60665 25200.00000 0 -10461809.396 -20387078.358 -11191888.024 10 0 60665 26100.00000 0 -10941048.184 -21508148.885 -8273771.954 10 0 60665 27000.00000 0 -11376581.559 -22243360.278 -5194952.057 10 0 60665 27900.00000 0 -11711217.888 -22591483.103 -2015318.805 10 0 60665 28800.00000 0 -11890011.599 -22564527.734 1203394.249 10 0 60665 29700.00000 0 -11862779.180 -22187074.199 4398808.925 10 0 60665 30600.00000 0 -11586418.443 -21495096.600 7509104.782 10 0 60665 31500.00000 0 -11026934.531 -20534334.229 10474202.513 10 0 60665 32400.00000 0 -10161089.034 -19358279.628 13236906.488 10 0 60665 33300.00000 0 -8977604.751 -18025869.003 15743986.028 10 0 60665 34200.00000 0 -7477877.119 -16598971.626 17947176.483 10 0 60665 35100.00000 0 -5676163.777 -15139782.339 19804083.261 10 0 60665 36000.00000 0 -3599244.936 -13708224.429 21278973.894 10 0 60665 36900.00000 0 -1285568.335 -12359468.847 22343445.276 10 0 60665 37800.00000 0 1216086.878 -11141670.679 22976955.363 10 0 60665 38700.00000 0 3848373.933 -10094014.662 23167210.794 10 0 60665 39600.00000 0 6547499.564 -9245149.016 22910403.935 10 0 60665 40500.00000 0 9245617.900 -8612071.315 22211295.065 10 0 60665 41400.00000 0 11873401.512 -8199512.096 21083137.530 10 0 60665 42300.00000 0 14362686.496 -7999842.148 19547445.963 10 0 60665 43200.00000 0 16649084.909 -7993508.373 17633610.006 10 0 60665 44100.00000 0 18674458.402 -8149981.789 15378358.438 10 0 60665 45000.00000 0 20389151.536 -8429180.201 12825081.202 10 0 60665 45900.00000 0 21753892.075 -8783308.249 10023019.569 10 0 60665 46800.00000 0 22741278.263 -9159039.680 7026337.403 10 0 60665 47700.00000 0 23336789.276 -9499951.616 3893089.318 10 0 60665 48600.00000 0 23539274.288 -9749109.007 684104.166 10 0 60665 49500.00000 0 23360897.011 -9851689.983 -2538195.304 10 0 60665 50400.00000 0 22826535.484 -9757539.895 -5711013.603 10 0 60665 51300.00000 0 21972660.141 -9423543.792 -8772419.891 10 0 60665 52200.00000 0 20845735.842 -8815713.876 -11662575.990 10 0 60665 53100.00000 0 19500214.472 -7910900.010 -14324928.947 10 0 60665 54000.00000 0 17996202.964 -6698047.101 -16707342.489 10 0 60665 54900.00000 0 16396906.089 -5178942.497 -18763142.748 10 0 60665 55800.00000 0 14765953.648 -3368418.594 -20452055.357 10 0 60665 56700.00000 0 13164726.919 -1293999.561 -21741013.468 10 0 60665 57600.00000 0 11649799.356 1004994.686 -22604819.188 10 0 60665 58500.00000 0 10270601.560 3478850.279 -23026644.338 10 0 60665 59400.00000 0 9067410.464 6069308.045 -22998360.139 10 0 60665 60300.00000 0 8069748.341 8711780.618 -22520689.444 10 0 60665 61200.00000 0 7295259.056 11337843.803 -21603179.088 10 0 60665 62100.00000 0 6749107.945 13877896.320 -20263993.999 10 0 60665 63000.00000 0 6423928.754 16263875.236 -18529538.563 10 0 60665 63900.00000 0 6300317.264 18431912.302 -16433914.445 10 0 60665 64800.00000 0 6347847.658 20324819.629 -14018227.465 10 0 60665 65700.00000 0 6526565.341 21894300.943 -11329759.102 10 0 60665 66600.00000 0 6788889.826 23102796.975 -8421020.882 10 0 60665 67500.00000 0 7081844.296 23924889.636 -5348711.961 10 0 60665 68400.00000 0 7349515.176 24348208.847 -2172601.817 10 0 60665 69300.00000 0 7535636.116 24373807.160 1045638.971 10 0 60665 70200.00000 0 7586186.377 24015989.812 4243636.336 10 0 60665 71100.00000 0 7451893.978 23301610.799 7359515.400 10 0 60665 72000.00000 0 7090538.807 22268867.353 10333085.249 10 0 60665 72900.00000 0 6468960.062 20965645.645 13106983.926 10 0 60665 73800.00000 0 5564685.215 19447488.321 15627763.069 10 0 60665 74700.00000 0 4367113.821 17775269.335 17846893.269 10 0 60665 75600.00000 0 2878208.068 16012672.798 19721673.187 10 0 60665 76500.00000 0 1112662.026 14223579.456 21216027.378 10 0 60665 77400.00000 0 -902457.291 12469467.664 22301179.885 10 0 60665 78300.00000 0 -3128582.852 10806934.433 22956192.812 10 0 60665 79200.00000 0 -5516999.934 9285436.924 23168361.163 10 0 60665 80100.00000 0 -8010624.114 7945345.797 22933457.420 10 0 60665 81000.00000 0 -10546134.297 6816389.274 22255821.405 10 0 60665 81900.00000 0 -13056375.847 5916551.248 21148293.191 10 0 60665 82800.00000 0 -15472937.618 5251468.797 19631989.030 10 0 60665 83700.00000 0 -17728799.276 4814354.556 17735922.609 10 0 60665 84600.00000 0 -19760941.566 4586448.342 15496476.418 10 0 60665 85500.00000 0 -21512812.731 4537980.907 12956730.601 10 0 60666 0.00000 0 -22936549.005 4629611.546 10165659.620 10 0 60666 900.00000 0 -23994856.850 4814281.388 7177208.043 10 0 60666 1800.00000 0 -24662475.098 5039406.069 4049264.897 10 0 60666 2700.00000 0 -24927156.125 5249316.737 842549.873 10 0 60666 3600.00000 0 -24790120.197 5387846.550 -2380564.161 10 0 60666 4500.00000 0 -24265961.864 5400952.702 -5557270.905 10 0 60666 5400.00000 0 -23382009.468 5239261.339 -8625567.850 10 0 60666 6300.00000 0 -22177162.490 4860425.053 -11525485.399 10 0 60666 7200.00000 0 -20700254.309 4231189.845 -14200281.825 10 0 60666 8100.00000 0 -19008008.752 3329080.406 -16597578.341 10 0 60666 9000.00000 0 -17162676.920 2143628.677 -18670409.611 10 0 60666 9900.00000 0 -15229455.034 677090.276 -20378166.700 10 0 60666 10800.00000 0 -13273793.833 -1055384.335 -21687411.875 10 0 60666 11700.00000 0 -11358714.882 -3026133.345 -22572547.623 10 0 60666 12600.00000 0 -9542248.831 -5195906.837 -23016325.588 10 0 60666 13500.00000 0 -7875105.151 -7515291.298 -23010184.868 10 0 60666 14400.00000 0 -6398672.479 -9926575.129 -22554413.072 10 0 60666 15300.00000 0 -5143434.005 -12365975.745 -21658127.501 10 0 60666 16200.00000 0 -4127863.928 -14766133.404 -20339077.920 10 0 60666 17100.00000 0 -3357849.813 -17058765.680 -18623276.198 10 0 60666 18000.00000 0 -2826662.732 -19177369.923 -16544461.862 10 0 60666 18900.00000 0 -2515473.320 -21059859.532 -14143416.002 10 0 60666 19800.00000 0 -2394388.427 -22651023.292 -11467138.965 10 0 60666 20700.00000 0 -2423960.943 -23904705.122 -8567909.984 10 0 60666 21600.00000 0 -2557105.561 -24785614.182 -5502248.949 10 0 60666 22500.00000 0 -2741336.492 -25270691.489 -2329802.186 10 0 60666 23400.00000 0 -2921230.280 -25349978.314 887824.789 10 0 60666 24300.00000 0 -3041008.116 -25026953.083 4088264.094 10 0 60666 25200.00000 0 -3047128.054 -24318325.789 7209588.485 10 0 60666 26100.00000 0 -2890777.989 -23253301.401 10191497.507 10 0 60666 27000.00000 0 -2530165.338 -21872345.731 12976464.916 10 0 60666 27900.00000 0 -1932508.519 -20225506.914 15510826.688 10 0 60666 28800.00000 0 -1075648.272 -18370363.571 17745790.624 10 0 60666 29700.00000 0 50787.116 -16369685.136 19638350.475 10 0 60666 30600.00000 0 1444710.186 -14288900.763 21152089.483 10 0 60666 31500.00000 0 3091423.680 -12193480.261 22257860.304 10 0 60666 32400.00000 0 4963997.480 -10146333.365 22934330.381 10 0 60666 33300.00000 0 7024158.468 -8205332.595 23168384.000 10 0 60666 34200.00000 0 9223658.346 -6421059.709 22955374.370 10 0 60666 35100.00000 0 11506065.340 -4834866.816 22299221.183 10 0 60666 36000.00000 0 13808908.696 -3477330.664 21212351.270 10 0 60666 36900.00000 0 16066090.430 -2367163.219 19715482.244 10 0 60666 37800.00000 0 18210467.565 -1510623.539 17837251.296 10 0 60666 38700.00000 0 20176500.464 -901455.979 15613693.785 10 0 60666 39600.00000 0 21902859.189 -521358.622 13087578.893 10 0 60666 40500.00000 0 23334880.459 -340964.091 10307612.260 10 0 60666 41400.00000 0 24426772.752 -321293.620 7327518.310 10 0 60666 42300.00000 0 25143476.308 -415625.192 4205017.792 10 0 60666 43200.00000 0 25462098.168 -571698.508 1000718.701 10 0 60666 44100.00000 0 25372859.391 -734164.528 -2223058.795 10 0 60666 45000.00000 0 24879511.559 -847175.946 -5403500.581 10 0 60666 45900.00000 0 23999201.959 -857007.895 -8478535.560 10 0 60666 46800.00000 0 22761790.340 -714595.861 -11388065.773 10 0 60666 47700.00000 0 21208643.845 -377880.504 -14075163.651 10 0 60666 48600.00000 0 19390959.557 186143.326 -16487210.634 10 0 60666 49500.00000 0 17367684.896 999763.729 -18576952.439 10 0 60666 50400.00000 0 15203123.938 2073348.923 -20303447.821 10 0 60666 51300.00000 0 12964331.640 3404658.405 -21632890.171 10 0 60666 52200.00000 0 10718407.300 4978699.660 -22539284.085 10 0 60666 53100.00000 0 8529803.035 6768138.103 -23004962.459 10 0 60666 54000.00000 0 6457762.137 8734243.727 -23020933.367 10 0 60666 54900.00000 0 4553996.306 10828334.528 -22587049.890 10 0 60666 55800.00000 0 2860699.969 12993655.166 -21712000.107 10 0 60666 56700.00000 0 1408984.850 15167610.565 -20413118.485 10 0 60666 57600.00000 0 217799.361 17284259.052 -18716023.787 10 0 60666 58500.00000 0 -706623.889 19276958.712 -16654092.364 10 0 60666 59400.00000 0 -1370772.180 21081054.574 -14267779.094 10 0 60666 60300.00000 0 -1793311.741 22636493.013 -11603801.299 10 0 60666 61200.00000 0 -2004028.423 23890253.463 -8714203.638 10 0 60666 62100.00000 0 -2042298.527 24798496.016 -5655324.134 10 0 60666 63000.00000 0 -1955157.873 25328336.171 -2486683.095 10 0 60666 63900.00000 0 -1795053.605 25459174.300 730182.112 10 0 60666 64800.00000 0 -1617375.831 25183526.653 3932913.003 10 0 60666 65700.00000 0 -1477874.587 24507325.846 7059533.177 10 0 60666 66600.00000 0 -1430071.432 23449681.247 10049635.828 10 0 60666 67500.00000 0 -1522774.226 22042111.648 12845533.519 10 0 60666 68400.00000 0 -1797798.550 20327284.121 15393349.479 10 0 60666 69300.00000 0 -2287989.904 18357313.059 17644031.428 10 0 60666 70200.00000 0 -3015627.917 16191690.431 19554270.682 10 0 60666 71100.00000 0 -3991277.838 13894932.694 21087311.393 10 0 60666 72000.00000 0 -5213136.193 11534040.575 22213636.732 10 0 60666 72900.00000 0 -6666897.576 9175874.820 22911521.035 10 0 60666 73800.00000 0 -8326148.595 6884553.962 23167439.030 10 0 60666 74700.00000 0 -10153273.945 4718979.041 22976325.360 10 0 60666 75600.00000 0 -12100839.217 2730585.009 22341679.776 10 0 60666 76500.00000 0 -14113395.845 961409.668 21275515.514 10 0 60666 77400.00000 0 -16129636.497 -557441.486 19798150.622 10 0 60666 78300.00000 0 -18084814.718 -1806871.621 17937844.282 10 0 60666 79200.00000 0 -19913331.245 -2780365.405 15730282.679 10 0 60666 80100.00000 0 -21551381.797 -3484033.623 13217921.500 10 0 60666 81000.00000 0 -22939557.522 -3936126.301 10449194.895 10 0 60666 81900.00000 0 -24025290.050 -4166032.876 7477603.424 10 0 60666 82800.00000 0 -24765038.256 -4212809.462 4360696.393 10 0 60666 83700.00000 0 -25126123.473 -4123293.494 1158966.615 10 0 60666 84600.00000 0 -25088133.601 -3949884.050 -2065321.916 10 0 60666 85500.00000 0 -24643833.990 -3748081.231 -5249350.686 10 0 60667 0.00000 0 -23799543.518 -3573889.165 -8330983.021 10 0 60667 900.00000 0 -22574956.225 -3481193.996 -11249996.281 10 0 60667 1800.00000 0 -21002414.490 -3519230.416 -13949279.674 10 0 60667 2700.00000 0 -19125660.757 -3730246.759 -16375977.495 10 0 60667 3600.00000 0 -16998120.244 -4147471.138 -18482548.768 10 0 60667 4500.00000 0 -14680786.333 -4793468.068 -20227721.762 10 0 60667 5400.00000 0 -12239798.243 -5678958.297 -21577322.276 10 0 60667 6300.00000 0 -9743814.101 -6802154.365 -22504957.731 10 0 60667 7200.00000 0 -7261291.462 -8148641.888 -22992542.393 10 0 60667 8100.00000 0 -4857791.206 -9691812.610 -23030652.843 10 0 60667 9000.00000 0 -2593419.429 -11393831.179 -22618706.645 10 0 60667 9900.00000 0 -520515.650 -13207094.294 -21764961.206 10 0 60667 10800.00000 0 1318315.505 -15076119.569 -20486333.875 10 0 60667 11700.00000 0 2891747.309 -16939782.994 -18808048.204 10 0 60667 12600.00000 0 4180785.501 -18733809.063 -16763115.043 10 0 60667 13500.00000 0 5179292.740 -20393407.220 -14391660.599 10 0 60667 14400.00000 0 5893964.234 -21855942.447 -11740116.626 10 0 60667 15300.00000 0 6343759.369 -23063526.992 -8860290.643 10 0 60667 16200.00000 0 6558817.342 -23965424.292 -5808336.257 10 0 60667 17100.00000 0 6578906.391 -24520164.802 -2643645.263 10 0 60667 18000.00000 0 6451475.519 -24697286.288 572315.521 10 0 60667 18900.00000 0 6229393.713 -24478627.575 3777199.295 10 0 60667 19800.00000 0 5968473.941 -23859123.922 6908982.707 10 0 60667 20700.00000 0 5724887.340 -22847073.315 9907154.662 10 0 60667 21600.00000 0 5552576.545 -21463864.915 12713868.415 10 0 60667 22500.00000 0 5500776.233 -19743183.128 15275036.229 10 0 60667 23400.00000 0 5611743.663 -17729721.664 17541347.346 10 0 60667 24300.00000 0 5918792.721 -15477461.807 19469192.033 10 0 60667 25200.00000 0 6444712.011 -13047586.254 21021476.499 10 0 60667 26100.00000 0 7200631.589 -10506113.662 22168315.324 10 0 60667 27000.00000 0 8185384.747 -7921349.966 22887590.361 10 0 60667 27900.00000 0 9385391.243 -5361259.337 23165367.118 10 0 60667 28800.00000 0 10775067.537 -2890860.641 22996161.734 10 0 60667 29700.00000 0 12317748.558 -569754.094 22383053.822 10 0 60667 30600.00000 0 13967085.051 1550122.227 21337642.584 10 0 60667 31500.00000 0 15668861.304 3426415.260 19879845.827 10 0 60667 32400.00000 0 17363160.867 5027880.882 18037543.845 10 0 60667 33300.00000 0 18986793.226 6335446.152 15846072.541 10 0 60667 34200.00000 0 20475883.020 7342765.308 13347572.792 10 0 60667 35100.00000 0 21768515.705 8056245.258 10590205.698 10 0 60667 36000.00000 0 22807330.108 8494537.886 7627246.152 10 0 60667 36900.00000 0 23541949.221 8687518.518 4516069.976 10 0 60667 37800.00000 0 23931146.065 8674791.640 1317052.520 10 0 60667 38700.00000 0 23944651.488 8503785.287 -1907600.863 10 0 60667 39600.00000 0 23564524.839 8227513.628 -5095069.844 10 0 60667 40500.00000 0 22786026.402 7902102.268 -8183155.361 10 0 60667 41400.00000 0 21617951.275 7584181.824 -11111511.569 10 0 60667 42300.00000 0 20082407.305 7328261.882 -13822847.506 10 0 60667 43200.00000 0 18214043.738 7184199.082 -16264072.636 10 0 60667 44100.00000 0 16058761.098 7194869.553 -18387361.409 10 0 60667 45000.00000 0 13671955.620 7394147.525 -20151113.528 10 0 60667 45900.00000 0 11116371.991 7805278.769 -21520788.927 10 0 60667 46800.00000 0 8459655.341 8439720.402 -22469599.376 10 0 60667 47700.00000 0 5771706.599 9296498.194 -22979041.832 10 0 60667 48600.00000 0 3121953.796 10362109.768 -23039262.458 10 0 60667 49500.00000 0 576655.237 11610978.221 -22649244.071 10 0 60667 50400.00000 0 -1803651.111 13006436.576 -21816813.816 10 0 60667 51300.00000 0 -3966444.569 14502200.392 -20558471.930 10 0 60667 52200.00000 0 -5869168.995 16044264.846 -18899046.309 10 0 60667 53100.00000 0 -7480749.805 17573144.342 -16871181.425 10 0 60667 54000.00000 0 -8782619.254 19026358.358 -14514673.507 10 0 60667 54900.00000 0 -9769209.868 20341057.120 -11875667.047 10 0 60667 55800.00000 0 -10447898.887 21456675.232 -9005730.403 10 0 60667 56700.00000 0 -10838410.038 22317500.933 -5960830.447 10 0 60667 57600.00000 0 -10971701.920 22875052.949 -2800227.936 10 0 60667 58500.00000 0 -10888393.636 23090165.784 414683.577 10 0 60667 59400.00000 0 -10636797.314 22934697.250 3621571.802 10 0 60667 60300.00000 0 -10270643.008 22392788.623 6758369.328 10 0 60667 61200.00000 0 -9846593.426 21461626.794 9764463.704 10 0 60667 62100.00000 0 -9421653.717 20151678.810 12581851.827 10 0 60667 63000.00000 0 -9050584.974 18486390.990 15156237.842 10 0 60667 63900.00000 0 -8783428.998 16501366.613 17438055.244 10 0 60667 64800.00000 0 -8663246.551 14243057.338 19383395.874 10 0 60667 65700.00000 0 -8724161.882 11767022.558 20954830.408 10 0 60667 66600.00000 0 -8989793.480 9135828.017 22122106.989 10 0 60667 67500.00000 0 -9472135.045 6416668.938 22862716.837 10 0 60667 68400.00000 0 -10170932.535 3678813.411 23162317.716 10 0 60667 69300.00000 0 -11073583.184 990968.895 23015008.307 10 0 60667 70200.00000 0 -12155561.532 -1581322.447 22423448.640 10 0 60667 71100.00000 0 -13381356.486 -3978154.908 21398823.888 10 0 60667 72000.00000 0 -14705882.799 -6147497.154 19960651.055 10 0 60667 72900.00000 0 -16076311.100 -8047106.103 18136430.394 10 0 60667 73800.00000 0 -17434243.277 -9646038.407 15961145.821 10 0 60667 74700.00000 0 -18718145.249 -10925696.802 13476621.165 10 0 60667 75600.00000 0 -19865937.838 -11880367.049 10730741.800 10 0 60667 76500.00000 0 -20817638.764 -12517221.634 7776553.916 10 0 60667 77400.00000 0 -21517945.484 -12855788.204 4671256.542 10 0 60667 78300.00000 0 -21918649.738 -12926903.050 1475104.096 10 0 60667 79200.00000 0 -21980780.545 -12771191.880 -1749760.270 10 0 60667 80100.00000 0 -21676382.716 -12437140.538 -4940517.992 10 0 60667 81000.00000 0 -20989852.602 -11978836.545 -8034910.866 10 0 60667 81900.00000 0 -19918771.073 -11453477.173 -10972473.830 10 0 60667 82800.00000 0 -18474194.942 -10918750.659 -13695738.713 10 0 60667 83700.00000 0 -16680391.294 -10430203.370 -16151383.146 10 0 60667 84600.00000 0 -14574023.269 -10038707.004 -18291299.664 10 0 60667 85500.00000 0 -12202819.875 -9788135.997 -20073561.602 99